• In Austria
  • List of Countries
  • For 7 days
  • Water Temperature
  • Satellite Maps
  • Weather Map
  • News
  • Weather Widgets
  • user-avatar
    Login

    Hourly Weather Silivri

    Today, 22 July, Sunday

    Time Temperature Precipitation Wind Pressure Humidity
    00:00 +26°C° 0 mm 1 mps 754 mmHg 78%
    01:00 +26°C° 0 mm 1 mps 754 mmHg 79%
    02:00 +26°C° 0 mm 1 mps 753 mmHg 80%
    03:00 +25°C° 0 mm 1 mps 753 mmHg 80%
    04:00 +25°C° 0 mm 1 mps 753 mmHg 80%
    05:00 +25°C° 0 mm 1 mps 753 mmHg 80%
    06:00 +26°C° 0 mm 1 mps 754 mmHg 73%
    07:00 +28°C° 0 mm 2 mps 754 mmHg 66%
    08:00 +30°C° 0 mm 2 mps 754 mmHg 59%
    09:00 +31°C° 0 mm 2 mps 754 mmHg 53%
    10:00 +32°C° 0 mm 2 mps 753 mmHg 46%
    11:00 +35°C° 0 mm 2 mps 753 mmHg 40%
    12:00 +35°C° 0 mm 3 mps 753 mmHg 38%
    13:00 +36°C° 0 mm 3 mps 753 mmHg 36%
    14:00 +37°C° 0 mm 3 mps 752 mmHg 35%
    15:00 +36°C° 0 mm 3 mps 752 mmHg 37%
    16:00 +36°C° 0 mm 3 mps 752 mmHg 39%
    17:00 +35°C° 0 mm 3 mps 752 mmHg 41%
    18:00 +34°C° 0 mm 3 mps 752 mmHg 47%
    19:00 +31°C° 0 mm 3 mps 751 mmHg 53%
    20:00 +29°C° 0 mm 3 mps 751 mmHg 60%
    21:00 +29°C° 0 mm 3 mps 751 mmHg 60%
    22:00 +28°C° 0 mm 3 mps 751 mmHg 60%
    23:00 +28°C° 0 mm 3 mps 751 mmHg 60%

    Tomorrow, 23 July, Monday

    Time Temperature Precipitation Wind Pressure Humidity
    00:00 +27°C° 0 mm 2 mps 751 mmHg 63%
    01:00 +27°C° 0 mm 2 mps 751 mmHg 66%
    02:00 +26°C° 0 mm 1 mps 750 mmHg 69%
    03:00 +26°C° 0 mm 1 mps 750 mmHg 68%
    04:00 +26°C° 0 mm 2 mps 750 mmHg 67%
    05:00 +25°C° 0 mm 2 mps 750 mmHg 66%
    06:00 +27°C° 0 mm 1 mps 749 mmHg 61%
    07:00 +28°C° 0 mm 1 mps 749 mmHg 55%
    08:00 +30°C° 0 mm 1 mps 749 mmHg 50%
    09:00 +32°C° 0 mm 1 mps 749 mmHg 45%
    10:00 +33°C° 0 mm 1 mps 749 mmHg 39%
    11:00 +35°C° 0 mm 1 mps 749 mmHg 34%
    12:00 +36°C° 0 mm 2 mps 748 mmHg 33%
    13:00 +37°C° 0 mm 3 mps 748 mmHg 32%
    14:00 +37°C° 0 mm 3 mps 747 mmHg 31%
    15:00 +37°C° 0 mm 3 mps 747 mmHg 33%
    16:00 +37°C° 0 mm 3 mps 747 mmHg 35%
    17:00 +36°C° 0 mm 3 mps 747 mmHg 37%
    18:00 +34°C° 0 mm 3 mps 746 mmHg 45%
    19:00 +31°C° 0 mm 3 mps 746 mmHg 53%
    20:00 +29°C° 0 mm 3 mps 746 mmHg 61%
    21:00 +29°C° 0 mm 2 mps 746 mmHg 63%
    22:00 +28°C° 0 mm 2 mps 746 mmHg 66%
    23:00 +27°C° 0 mm 1 mps 746 mmHg 69%

    Day after tomorrow, 24 July, Tuesday

    Time Temperature Precipitation Wind Pressure Humidity
    00:00 +27°C° 0 mm 2 mps 746 mmHg 71%
    01:00 +26°C° 0 mm 2 mps 746 mmHg 74%
    02:00 +26°C° 0 mm 2 mps 745 mmHg 76%
    03:00 +25°C° 0.2 mm 2 mps 745 mmHg 79%
    04:00 +25°C° 0.2 mm 2 mps 745 mmHg 81%
    05:00 +25°C° 0.2 mm 2 mps 745 mmHg 84%
    06:00 +26°C° 0.4 mm 2 mps 745 mmHg 79%
    07:00 +27°C° 0.4 mm 3 mps 745 mmHg 75%
    08:00 +28°C° 0.4 mm 3 mps 745 mmHg 71%
    09:00 +28°C° 0.6 mm 3 mps 746 mmHg 69%
    10:00 +29°C° 0.6 mm 4 mps 746 mmHg 66%
    11:00 +29°C° 0.6 mm 4 mps 746 mmHg 64%
    12:00 +29°C° 0.3 mm 4 mps 746 mmHg 63%
    13:00 +29°C° 0.3 mm 4 mps 746 mmHg 62%
    14:00 +29°C° 0.3 mm 5 mps 746 mmHg 61%
    15:00 +29°C° 0.4 mm 4 mps 746 mmHg 61%
    16:00 +29°C° 0.4 mm 4 mps 746 mmHg 61%
    17:00 +29°C° 0.4 mm 3 mps 746 mmHg 61%
    18:00 +28°C° 0.9 mm 3 mps 746 mmHg 66%
    19:00 +27°C° 0.9 mm 3 mps 747 mmHg 71%
    20:00 +26°C° 0.9 mm 4 mps 747 mmHg 76%
    21:00 +25°C° 0.3 mm 3 mps 747 mmHg 79%
    22:00 +25°C° 0.3 mm 3 mps 747 mmHg 81%
    23:00 +24°C° 0.3 mm 2 mps 748 mmHg 83%

    25 July, Wednesday

    Time Temperature Precipitation Wind Pressure Humidity
    00:00 +24°C° 0.2 mm 2 mps 748 mmHg 84%
    01:00 +24°C° 0.2 mm 3 mps 748 mmHg 84%
    02:00 +22°C° 0.2 mm 3 mps 748 mmHg 85%
    03:00 +22°C° 0.2 mm 3 mps 748 mmHg 85%
    04:00 +22°C° 0.2 mm 3 mps 748 mmHg 85%
    05:00 +23°C° 0.2 mm 2 mps 748 mmHg 85%
    06:00 +24°C° 0.4 mm 2 mps 748 mmHg 80%
    07:00 +25°C° 0.4 mm 3 mps 748 mmHg 74%
    08:00 +27°C° 0.4 mm 3 mps 749 mmHg 68%
    09:00 +28°C° 0.1 mm 3 mps 749 mmHg 62%
    10:00 +29°C° 0.1 mm 3 mps 749 mmHg 56%
    11:00 +31°C° 0.1 mm 3 mps 749 mmHg 50%
    12:00 +31°C° 0 mm 3 mps 749 mmHg 49%
    13:00 +33°C° 0 mm 3 mps 748 mmHg 48%
    14:00 +33°C° 0 mm 4 mps 748 mmHg 48%
    15:00 +33°C° 0.2 mm 3 mps 748 mmHg 52%
    16:00 +31°C° 0.2 mm 3 mps 748 mmHg 56%
    17:00 +30°C° 0.2 mm 2 mps 748 mmHg 60%
    18:00 +29°C° 0 mm 2 mps 749 mmHg 64%
    19:00 +28°C° 0 mm 2 mps 749 mmHg 68%
    20:00 +27°C° 0 mm 2 mps 749 mmHg 72%
    21:00 +26°C° 0 mm 2 mps 749 mmHg 75%
    22:00 +26°C° 0 mm 2 mps 749 mmHg 78%
    23:00 +25°C° 0 mm 2 mps 750 mmHg 80%

    26 July, Thursday

    Time Temperature Precipitation Wind Pressure Humidity
    00:00 +25°C° 0 mm 2 mps 750 mmHg 82%
    01:00 +25°C° 0 mm 2 mps 750 mmHg 83%
    02:00 +24°C° 0 mm 2 mps 750 mmHg 85%
    03:00 +24°C° 0 mm 2 mps 750 mmHg 86%
    04:00 +24°C° 0 mm 2 mps 750 mmHg 87%
    05:00 +24°C° 0 mm 2 mps 750 mmHg 89%
    06:00 +25°C° 0 mm 2 mps 750 mmHg 83%
    07:00 +26°C° 0 mm 2 mps 750 mmHg 78%
    08:00 +28°C° 0 mm 2 mps 750 mmHg 73%
    09:00 +29°C° 0 mm 2 mps 750 mmHg 68%
    10:00 +30°C° 0 mm 2 mps 750 mmHg 62%
    11:00 +31°C° 0 mm 2 mps 750 mmHg 57%
    12:00 +31°C° 0.1 mm 2 mps 750 mmHg 56%
    13:00 +31°C° 0.1 mm 2 mps 750 mmHg 56%
    14:00 +31°C° 0.1 mm 2 mps 750 mmHg 56%
    15:00 +31°C° 0 mm 3 mps 750 mmHg 57%
    16:00 +31°C° 0 mm 3 mps 750 mmHg 59%
    17:00 +31°C° 0 mm 3 mps 750 mmHg 61%
    18:00 +29°C° 0 mm 3 mps 750 mmHg 67%
    19:00 +28°C° 0 mm 3 mps 751 mmHg 74%
    20:00 +27°C° 0 mm 3 mps 751 mmHg 81%
    21:00 +26°C° 0.1 mm 3 mps 751 mmHg 84%
    22:00 +26°C° 0.1 mm 2 mps 751 mmHg 86%
    23:00 +25°C° 0.1 mm 2 mps 751 mmHg 89%

    27 July, Friday

    Time Temperature Precipitation Wind Pressure Humidity
    00:00 +25°C° 0 mm 2 mps 751 mmHg 89%
    01:00 +25°C° 0 mm 2 mps 751 mmHg 90%
    02:00 +25°C° 0 mm 2 mps 751 mmHg 91%
    03:00 +24°C° 0 mm 2 mps 751 mmHg 91%
    04:00 +24°C° 0 mm 2 mps 752 mmHg 92%
    05:00 +24°C° 0 mm 2 mps 752 mmHg 92%
    06:00 +25°C° 0 mm 2 mps 752 mmHg 86%
    07:00 +27°C° 0 mm 2 mps 752 mmHg 80%
    08:00 +28°C° 0 mm 2 mps 752 mmHg 74%
    09:00 +29°C° 0.2 mm 2 mps 752 mmHg 70%
    10:00 +30°C° 0.2 mm 2 mps 752 mmHg 65%
    11:00 +31°C° 0.2 mm 2 mps 752 mmHg 60%
    12:00 +31°C° 0.1 mm 2 mps 752 mmHg 59%
    13:00 +32°C° 0.1 mm 2 mps 751 mmHg 58%
    14:00 +33°C° 0.1 mm 3 mps 751 mmHg 57%
    15:00 +33°C° 0 mm 3 mps 751 mmHg 58%
    16:00 +33°C° 0 mm 3 mps 751 mmHg 59%
    17:00 +31°C° 0 mm 3 mps 751 mmHg 60%
    18:00 +30°C° 0 mm 4 mps 751 mmHg 66%
    19:00 +28°C° 0 mm 4 mps 752 mmHg 72%
    20:00 +27°C° 0 mm 4 mps 752 mmHg 79%
    21:00 +26°C° 0 mm 3 mps 752 mmHg 80%
    22:00 +26°C° 0 mm 3 mps 752 mmHg 82%
    23:00 +25°C° 0 mm 2 mps 752 mmHg 84%
    Show more